Weather History for Long Beach, CA

Change the Weather History Date:

Wednesday, October 5, 2011

  Actual Average Record
Temperature  
Mean Temperature 62 °F 70 °F  
Max Temperature 65 °F 79 °F 104 °F (1971)
Min Temperature 58 °F 61 °F 51 °F (1969)
Degree Days  
Heating Degree Days 3 0  
Month to date heating degree days 3 0  
Since 1 July heating degree days 3 1  
Cooling Degree Days 0 5  
Month to date cooling degree days 22 25  
Year to date cooling degree days 810 1024  
Growing Degree Days 12 (Base 50)    
Moisture  
Dew Point 58 °F    
Average Humidity 84    
Maximum Humidity 100    
Minimum Humidity 67    
Precipitation  
Precipitation 0.33 in 0.01 in 0.33 in (2011)
Month to date precipitation 0.57 0.06  
Year to date precipitation 6.73 8.74  
Since 1 July precipitation 0.59 0.30  
Sea Level Pressure  
Sea Level Pressure 29.89 in    
Wind  
Wind Speed 9 mph (SSW)    
Max Wind Speed 20 mph    
Max Gust Speed 28 mph    
Visibility 6 miles    
Events Rain    
T = Trace of Precipitation, MM = Missing Value Source: NWS Daily Summary

Daily Weather History Graph

Daily Weather History Graph

Search for Another Location

Airport:

Trip Planner

Search our weather history database for the weather conditions in past years. The results will help you decide how hot, cold, wet, or windy it might be!

Date:

Astronomy

Oct. 05, 2011 Rise Set
Actual Time 6:49 AM PDT 6:31 PM PDT
Civil Twilight 6:24 AM PDT 6:56 PM PDT
Nautical Twilight 5:55 AM PDT 7:25 PM PDT
Astronomical Twilight 5:26 AM PDT 7:54 PM PDT
Moon 3:00 PM PDT (10/5) 12:57 AM PDT (10/5)
Length of Visible Light 12h 31m
Length of Day
11h 41m
Waxing Gibbous, 67% of the Moon is Illuminated
Oct 5
Waxing Gibbous
Oct 11
Full
Oct 19
Last Quarter
Oct 26
New
Nov 2
First Quarter

Hourly Weather History & Observations

Time (PDT) Temp. Dew Point Humidity Pressure Visibility Wind Dir Wind Speed Gust Speed Precip Events Conditions
12:01 AM 62.6 °F 55.4 °F 77% 29.98 in 10.0 mi WNW 5.8 mph - N/A   Overcast
12:50 AM 62.6 °F 55.4 °F 77% 29.96 in 10.0 mi Calm Calm - N/A   Scattered Clouds
12:53 AM 62.1 °F 55.9 °F 80% 29.96 in 10.0 mi Calm Calm - N/A   Scattered Clouds
1:53 AM 61.0 °F 55.9 °F 83% 29.96 in 10.0 mi Calm Calm - N/A   Clear
2:53 AM 61.0 °F 54.0 °F 78% 29.95 in 10.0 mi Calm Calm - N/A   Mostly Cloudy
3:53 AM 60.8 °F 55.4 °F 82% 29.94 in 10.0 mi Calm Calm - N/A   Overcast
4:48 AM 60.8 °F 57.2 °F 88% 29.94 in 10.0 mi Calm Calm - N/A   Overcast
4:53 AM 61.0 °F 57.0 °F 87% 29.94 in 10.0 mi SSE 3.5 mph - N/A   Overcast
5:53 AM 62.1 °F 57.0 °F 84% 29.93 in 10.0 mi South 5.8 mph - N/A   Overcast
6:53 AM 62.1 °F 55.9 °F 80% 29.93 in 10.0 mi SE 6.9 mph - 0.00 in   Overcast
7:27 AM 62.6 °F 55.4 °F 77% 29.94 in 4.0 mi SSE 6.9 mph 18.4 mph 0.00 in Rain Light Rain
7:49 AM 60.8 °F 57.2 °F 88% 29.93 in 1.5 mi SSW 9.2 mph - 0.01 in Rain Light Rain
7:53 AM 60.1 °F 57.9 °F 93% 29.93 in 1.5 mi South 5.8 mph - 0.01 in Rain Light Rain
7:58 AM 60.8 °F 57.2 °F 88% 29.93 in 3.0 mi South 9.2 mph - 0.00 in Rain Light Rain
8:06 AM 60.8 °F 57.2 °F 88% 29.93 in 2.5 mi South 9.2 mph 17.3 mph 0.01 in Rain Light Rain
8:16 AM 59.0 °F 55.4 °F 88% 29.93 in 3.0 mi SSE 9.2 mph - 0.01 in Rain Light Rain
8:39 AM 59.0 °F 57.2 °F 94% 29.95 in 2.0 mi Variable 4.6 mph - N/A Rain Light Rain
8:47 AM 59.0 °F 57.2 °F 94% 29.94 in 1.5 mi SSE 5.8 mph - 0.04 in Rain Light Rain
8:53 AM 59.0 °F 57.0 °F 93% 29.94 in 1.5 mi SSE 6.9 mph - 0.05 in Rain Light Rain
8:59 AM 59.0 °F 57.2 °F 94% 29.94 in 2.0 mi SSE 5.8 mph - 0.00 in Rain Light Rain
9:12 AM 59.0 °F 57.2 °F 94% 29.93 in 1.8 mi SSE 6.9 mph - 0.02 in Rain Light Rain
9:26 AM 60.8 °F 57.2 °F 88% 29.93 in 1.8 mi SE 8.1 mph - 0.04 in Rain Light Rain
9:42 AM 60.8 °F 59.0 °F 94% 29.92 in 3.0 mi SSE 8.1 mph - 0.05 in Rain Light Rain
9:53 AM 60.1 °F 59.0 °F 96% 29.93 in 2.5 mi SSE 12.7 mph 18.4 mph 0.06 in Rain Light Rain
10:20 AM 60.8 °F 59.0 °F 94% 29.92 in 4.0 mi SSE 10.4 mph 16.1 mph 0.02 in Rain Light Rain
10:38 AM 60.8 °F 59.0 °F 94% 29.91 in 1.8 mi SSE 8.1 mph - 0.04 in Rain Rain
10:53 AM 60.1 °F 59.0 °F 96% 29.91 in 2.5 mi SSE 11.5 mph 19.6 mph 0.06 in Rain Light Rain
11:00 AM 60.8 °F 59.0 °F 94% 29.90 in 4.0 mi SSE 9.2 mph 19.6 mph 0.00 in Rain Light Rain
11:25 AM 62.6 °F 60.8 °F 94% 29.89 in 1.8 mi SSE 10.4 mph 21.9 mph 0.03 in Rain Light Rain
11:34 AM 62.6 °F 60.8 °F 94% 29.89 in 2.5 mi South 12.7 mph 25.3 mph 0.04 in Rain Light Rain
11:41 AM 62.6 °F 60.8 °F 94% 29.88 in 3.0 mi South 12.7 mph 25.3 mph 0.04 in Rain Light Rain
11:53 AM 62.1 °F 61.0 °F 96% 29.88 in 1.8 mi SSE 10.4 mph 19.6 mph 0.05 in Rain Light Rain
12:18 PM 62.6 °F 60.8 °F 94% 29.87 in 3.0 mi South 11.5 mph 20.7 mph 0.03 in Rain Light Rain
12:53 PM 63.0 °F 62.1 °F 97% 29.86 in 5.0 mi SSW 10.4 mph 17.3 mph 0.04 in Rain Light Rain
1:01 PM 62.6 °F 62.6 °F 100% 29.86 in 10.0 mi SSW 12.7 mph 21.9 mph 0.00 in   Overcast
1:31 PM 62.6 °F 62.6 °F 100% 29.85 in 3.0 mi SW 9.2 mph - 0.01 in Rain Light Rain
1:38 PM 64.4 °F 62.6 °F 94% 29.84 in 3.0 mi SSW 10.4 mph - 0.02 in Rain Light Rain
1:53 PM 63.0 °F 62.1 °F 97% 29.83 in 5.0 mi SW 9.2 mph - 0.02 in Rain Light Rain
2:28 PM 62.6 °F 60.8 °F 94% 29.83 in 5.0 mi SSW 13.8 mph 21.9 mph 0.00 in Rain Light Rain
2:38 PM 62.6 °F 62.6 °F 100% 29.82 in 3.0 mi SSW 10.4 mph - 0.00 in Rain Light Rain
2:42 PM 62.6 °F 62.6 °F 100% 29.82 in 2.5 mi SSW 11.5 mph - 0.01 in Rain Light Rain
2:53 PM 63.0 °F 62.1 °F 97% 29.82 in 3.0 mi SSW 10.4 mph - 0.02 in Rain Light Rain
3:39 PM 64.4 °F 62.6 °F 94% 29.81 in 5.0 mi WSW 10.4 mph - 0.02 in Rain Light Rain
3:46 PM 64.4 °F 60.8 °F 88% 29.80 in 10.0 mi West 9.2 mph - 0.02 in   Overcast
3:53 PM 64.4 °F 60.8 °F 88% 29.80 in 10.0 mi WSW 8.1 mph - N/A   Overcast
4:53 PM 64.0 °F 59.0 °F 84% 29.79 in 10.0 mi WSW 11.5 mph - 0.00 in   Mostly Cloudy
5:53 PM 64.0 °F 54.0 °F 70% 29.80 in 10.0 mi West 11.5 mph 20.7 mph N/A   Partly Cloudy
6:53 PM 62.6 °F 53.6 °F 72% 29.81 in 10.0 mi WSW 11.5 mph 19.6 mph N/A   Clear
7:53 PM 62.1 °F 53.1 °F 72% 29.83 in 10.0 mi West 6.9 mph 18.4 mph N/A   Partly Cloudy
8:53 PM 61.0 °F 50.0 °F 67% 29.84 in 10.0 mi West 11.5 mph - N/A   Partly Cloudy
9:53 PM 61.0 °F 50.0 °F 67% 29.85 in 10.0 mi WNW 10.4 mph - N/A   Clear
10:53 PM 60.8 °F 51.8 °F 72% 29.85 in 10.0 mi West 15.0 mph 25.3 mph N/A   Clear
11:53 PM 59.0 °F 48.9 °F 69% 29.86 in 10.0 mi West 10.4 mph - N/A   Clear